GW5293 Weather Reports


Display with metric or nautical units.
time (UTC)temp
F
wind
direction
speed
MPH
gust
MPH
rain 1hr
in
rain 24hr
in
rain mn
in
humidity
%
barometer
mb
20260503200333 67 155 3.0 3.0 0.00 0.00 0.00 34 1016.0
20260503195833 66 96 4.0 4.0 0.00 0.00 0.00 37 1017.0
20260503195332 67 58 4.0 4.0 0.00 0.00 0.00 32 1017.0
20260503194832 66 89 0.0 3.0 0.00 0.00 0.00 34 1017.0
20260503194331 66 277 0.0 2.0 0.00 0.00 0.00 37 1017.0
20260503193830 65 49 0.0 3.0 0.00 0.00 0.00 39 1017.0
20260503193330 67 94 9.0 12.0 0.00 0.00 0.00 33 1017.0
20260503192829 66 1 3.0 3.0 0.00 0.00 0.00 37 1017.0
20260503192329 68 52 3.0 7.0 0.00 0.00 0.00 31 1017.0
20260503191828 67 162 2.0 2.0 0.00 0.00 0.00 33 1017.0
20260503191328 66 55 3.0 3.0 0.00 0.00 0.00 38 1017.0
20260503190828 66 79 4.0 4.0 0.00 0.00 0.00 34 1017.0
20260503190327 67 96 4.0 5.0 0.00 0.00 0.00 32 1017.0
20260503185827 67 331 3.0 3.0 0.00 0.00 0.00 37 1017.0
20260503185326 66 272 0.0 2.0 0.00 0.00 0.00 38 1017.0
20260503184826 66 74 4.0 7.0 0.00 0.00 0.00 33 1018.0
20260503184325 66 49 2.0 2.0 0.00 0.00 0.00 33 1018.0
20260503183824 67 89 3.0 4.0 0.00 0.00 0.00 37 1017.0
20260503183324 66 206 0.0 2.0 0.00 0.00 0.00 35 1018.0
20260503182823 67 326 2.0 4.0 0.00 0.00 0.00 32 1018.0
20260503182323 66 226 3.0 6.0 0.00 0.00 0.00 33 1018.0
20260503181822 65 185 0.0 2.0 0.00 0.00 0.00 39 1018.0
20260503181322 65 133 2.0 3.0 0.00 0.00 0.00 32 1018.0
20260503180821 65 170 5.0 5.0 0.00 0.00 0.00 32 1018.0
20260503180320 65 358 0.0 2.0 0.00 0.00 0.00 38 1018.0
20260503175820 65 68 4.0 4.0 0.00 0.00 0.00 34 1018.0
20260503175320 64 306 2.0 2.0 0.00 0.00 0.00 42 1018.0
20260503174819 65 354 3.0 3.0 0.00 0.00 0.00 35 1018.0
20260503174319 65 179 3.0 3.0 0.00 0.00 0.00 34 1018.0
20260503173818 66 197 0.0 3.0 0.00 0.00 0.00 35 1018.0
20260503173317 65 157 2.0 2.0 0.00 0.00 0.00 38 1018.0
20260503172817 64 224 2.0 5.0 0.00 0.00 0.00 35 1018.0
20260503172316 64 305 2.0 3.0 0.00 0.00 0.00 38 1018.0
20260503171816 63 336 2.0 2.0 0.00 0.00 0.00 41 1019.0
20260503171315 63 80 4.0 5.0 0.00 0.00 0.00 39 1019.0
20260503170814 64 173 3.0 3.0 0.00 0.00 0.00 36 1019.0
20260503170314 64 326 3.0 4.0 0.00 0.00 0.00 36 1019.0
20260503150801 61 342 2.0 3.0 0.00 0.00 0.00 36 1020.0
20260503150301 60 81 0.0 3.0 0.00 0.00 0.00 37 1020.0
20260503140255 57 19 2.0 3.0 0.00 0.00 0.00 49 1020.0
20260503131249 55 28 3.0 3.0 0.00 0.00 0.00 56 1020.0
20260503130748 54 82 2.0 5.0 0.00 0.00 0.00 59 1020.0
20260503130247 54 25 3.0 3.0 0.00 0.00 0.00 60 1020.0
20260503110735 40 111 3.0 3.0 0.00 0.00 0.00 89 1018.0
20260503110234 40 116 2.0 3.0 0.00 0.00 0.00 89 1018.0
20260503100228 42 22 2.0 3.0 0.00 0.00 0.00 83 1018.0
20260503090223 43 39 3.0 4.0 0.00 0.00 0.00 81 1018.0
20260503081218 44 115 2.0 2.0 0.00 0.00 0.00 80 1017.0
20260503080717 44 94 3.0 3.0 0.00 0.00 0.00 79 1017.0
20260503080217 44 88 0.0 2.0 0.00 0.00 0.00 78 1017.0
20260503072712 45 72 0.0 0.0 0.00 0.00 0.00 75 1017.0
20260503072212 46 89 2.0 2.0 0.00 0.00 0.00 77 1017.0
20260503071711 46 77 2.0 2.0 0.00 0.00 0.00 75 1017.0
20260503071211 46 77 0.0 2.0 0.00 0.00 0.00 72 1017.0
20260503070710 47 102 0.0 2.0 0.00 0.00 0.00 71 1017.0
20260503070209 47 124 0.0 2.0 0.00 0.00 0.00 70 1017.0
20260503060203 48 129 0.0 0.0 0.00 0.00 0.00 70 1017.0
20260503054702 49 142 0.0 0.0 0.00 0.00 0.00 68 1016.0
20260503054201 49 135 0.0 0.0 0.00 0.00 0.00 68 1016.0
20260503053701 49 76 0.0 2.0 0.00 0.00 0.00 69 1016.0
20260503053201 49 67 2.0 3.0 0.00 0.00 0.00 69 1016.0
20260503052700 49 76 2.0 2.0 0.00 0.00 0.00 67 1016.0
20260503052159 49 108 2.0 3.0 0.00 0.00 0.00 69 1016.0
20260503051659 49 131 3.0 3.0 0.00 0.00 0.00 68 1016.0
20260503051158 49 77 2.0 2.0 0.00 0.00 0.00 67 1016.0
20260503050658 49 93 2.0 2.0 0.00 0.00 0.00 67 1016.0
20260503050158 49 49 0.0 0.0 0.00 0.00 0.00 67 1016.0
20260503045657 50 83 2.0 2.0 0.00 0.00 0.00 67 1016.0
20260503045156 50 96 2.0 2.0 0.00 0.00 0.00 66 1016.0
20260503044656 50 115 2.0 2.0 0.00 0.00 0.00 66 1016.0
20260503044156 50 97 2.0 2.0 0.00 0.00 0.00 66 1016.0
20260503043655 50 82 2.0 2.0 0.00 0.00 0.00 65 1016.0
20260503043154 50 101 2.0 2.0 0.00 0.00 0.00 65 1016.0
20260503042654 50 114 2.0 2.0 0.00 0.00 0.00 64 1016.0
20260503042153 50 109 2.0 2.0 0.00 0.00 0.00 64 1016.0
20260503041652 51 121 2.0 2.0 0.00 0.00 0.00 63 1016.0
20260503041152 51 40 3.0 3.0 0.00 0.00 0.00 63 1016.0
20260503040651 51 30 2.0 3.0 0.00 0.00 0.00 61 1016.0
20260503040150 51 148 2.0 3.0 0.00 0.00 0.00 62 1016.0
20260503035650 51 76 0.0 2.0 0.00 0.00 0.00 63 1016.0
20260503035149 51 354 3.0 5.0 0.00 0.00 0.00 61 1016.0
20260503034649 51 2 0.0 2.0 0.00 0.00 0.00 62 1016.0
20260503034148 51 67 0.0 2.0 0.00 0.00 0.00 61 1016.0
20260503033648 51 103 0.0 0.0 0.00 0.00 0.00 61 1016.0
20260503033147 51 67 2.0 3.0 0.00 0.00 0.00 62 1016.0
20260503032647 51 63 3.0 3.0 0.00 0.00 0.00 61 1016.0
20260503032146 51 71 2.0 2.0 0.00 0.00 0.00 60 1016.0
20260503031646 51 47 0.0 2.0 0.00 0.00 0.00 60 1016.0
20260503031145 51 117 3.0 3.0 0.00 0.00 0.00 60 1016.0
20260503030645 51 34 2.0 2.0 0.00 0.00 0.00 60 1016.0
20260503030145 51 101 2.0 2.0 0.00 0.00 0.00 60 1016.0
20260503025644 51 44 0.0 0.0 0.00 0.00 0.00 60 1016.0
20260503025143 51 50 0.0 0.0 0.00 0.00 0.00 60 1016.0
20260503024643 51 116 0.0 2.0 0.00 0.00 0.00 60 1016.0
20260503024142 51 43 2.0 2.0 0.00 0.00 0.00 59 1015.0
20260503023641 51 107 0.0 2.0 0.00 0.00 0.00 59 1016.0
20260503023141 51 45 2.0 3.0 0.00 0.00 0.00 59 1015.0
20260503022640 51 47 2.0 2.0 0.00 0.00 0.00 58 1015.0
20260503022140 51 24 3.0 3.0 0.00 0.00 0.00 58 1015.0
20260503021639 51 79 2.0 2.0 0.00 0.00 0.00 58 1016.0
20260503021138 51 74 0.0 2.0 0.00 0.00 0.00 58 1015.0
20260503020638 51 69 0.0 0.0 0.00 0.00 0.00 58 1015.0
20260503020138 51 113 0.0 0.0 0.00 0.00 0.00 60 1015.0
20260503015637 51 82 0.0 2.0 0.00 0.00 0.00 58 1015.0
20260503015137 51 117 0.0 2.0 0.00 0.00 0.00 58 1015.0
20260503014636 51 52 2.0 2.0 0.00 0.00 0.00 57 1015.0
20260503014135 51 67 0.0 2.0 0.00 0.00 0.00 58 1015.0
20260503013635 51 96 0.0 2.0 0.00 0.00 0.00 57 1015.0
20260503013135 52 76 0.0 3.0 0.00 0.00 0.00 57 1015.0
20260503012634 52 123 2.0 2.0 0.00 0.00 0.00 57 1015.0
20260503012134 52 82 2.0 2.0 0.00 0.00 0.00 57 1015.0
20260503011633 52 98 2.0 2.0 0.00 0.00 0.00 55 1015.0
20260503011132 52 33 2.0 2.0 0.00 0.00 0.00 55 1015.0
20260503010632 52 125 2.0 2.0 0.00 0.00 0.00 54 1015.0
20260503010132 53 141 2.0 2.0 0.00 0.00 0.00 54 1014.0
20260503005631 53 105 0.0 2.0 0.00 0.00 0.00 55 1014.0
20260503005131 53 114 2.0 2.0 0.00 0.00 0.00 54 1014.0
20260503004630 53 44 0.0 0.0 0.00 0.00 0.00 54 1014.0
20260503004130 54 44 0.0 2.0 0.00 0.00 0.00 53 1014.0
20260503003629 54 115 2.0 2.0 0.00 0.00 0.00 54 1014.0
20260503003129 54 37 0.0 2.0 0.00 0.00 0.00 52 1014.0
20260503002628 54 135 0.0 0.0 0.00 0.00 0.00 51 1014.0
20260503002128 55 108 2.0 2.0 0.00 0.00 0.00 50 1014.0
20260503001628 55 37 3.0 3.0 0.00 0.00 0.00 51 1014.0
20260503001127 55 60 2.0 2.0 0.00 0.00 0.00 50 1014.0
20260503000627 56 98 0.0 3.0 0.00 0.00 0.00 49 1014.0
20260503000126 56 59 2.0 3.0 0.00 0.00 0.00 49 1014.0
20260502235625 56 62 0.0 2.0 0.00 0.00 0.00 47 1014.0
20260502235125 57 56 4.0 4.0 0.00 0.00 0.00 47 1014.0
20260502234625 57 154 3.0 4.0 0.00 0.00 0.00 46 1014.0
20260502234124 57 22 2.0 3.0 0.00 0.00 0.00 45 1014.0
20260502233624 58 135 4.0 4.0 0.00 0.00 0.00 44 1014.0
20260502233123 58 49 2.0 2.0 0.00 0.00 0.00 44 1013.0
20260502232623 58 358 2.0 3.0 0.00 0.00 0.00 43 1013.0
20260502232122 59 16 3.0 3.0 0.00 0.00 0.00 43 1013.0
20260502231622 59 288 0.0 3.0 0.00 0.00 0.00 41 1013.0
20260502231121 59 194 4.0 4.0 0.00 0.00 0.00 44 1013.0
20260502230620 59 352 5.0 7.0 0.00 0.00 0.00 43 1013.0
20260502230120 59 83 2.0 2.0 0.00 0.00 0.00 43 1013.0
20260502225620 60 164 3.0 4.0 0.00 0.00 0.00 42 1013.0
20260502225119 60 13 3.0 4.0 0.00 0.00 0.00 40 1013.0
20260502224618 60 194 3.0 4.0 0.00 0.00 0.00 39 1013.0
20260502224118 60 56 4.0 4.0 0.00 0.00 0.00 40 1013.0
20260502223617 61 91 3.0 4.0 0.00 0.00 0.00 40 1013.0
20260502223117 61 80 0.0 2.0 0.00 0.00 0.00 39 1013.0
20260502222617 61 60 0.0 3.0 0.00 0.00 0.00 39 1013.0
20260502222116 62 42 3.0 4.0 0.00 0.00 0.00 37 1013.0
20260502221615 62 50 0.0 2.0 0.00 0.00 0.00 37 1013.0
20260502221115 62 8 2.0 3.0 0.00 0.00 0.00 37 1013.0
20260502220614 63 134 3.0 3.0 0.00 0.00 0.00 38 1013.0
20260502220114 63 355 2.0 3.0 0.00 0.00 0.00 36 1013.0
20260502215613 63 107 2.0 2.0 0.00 0.00 0.00 40 1013.0
20260502215113 63 328 3.0 4.0 0.00 0.00 0.00 36 1013.0
20260502214612 63 44 5.0 5.0 0.00 0.00 0.00 37 1013.0
20260502214112 63 130 5.0 5.0 0.00 0.00 0.00 36 1013.0
20260502213611 62 210 0.0 0.0 0.00 0.00 0.00 40 1013.0
20260502213111 61 148 0.0 2.0 0.00 0.00 0.00 39 1013.0
20260502212611 61 48 3.0 6.0 0.00 0.00 0.00 40 1013.0
20260502212110 61 144 4.0 5.0 0.00 0.00 0.00 37 1013.0
20260502211609 62 153 3.0 3.0 0.00 0.00 0.00 39 1013.0
20260502211109 62 94 0.0 2.0 0.00 0.00 0.00 40 1013.0
20260502210608 62 89 0.0 0.0 0.00 0.00 0.00 39 1013.0
20260502210108 62 121 0.0 2.0 0.00 0.00 0.00 40 1012.0
20260502205607 63 28 3.0 3.0 0.00 0.00 0.00 37 1012.0
20260502205106 63 37 2.0 3.0 0.00 0.00 0.00 36 1012.0
20260502204606 64 35 2.0 4.0 0.00 0.00 0.00 36 1013.0
20260502204106 64 214 2.0 3.0 0.00 0.00 0.00 36 1013.0
20260502203605 63 163 0.0 3.0 0.00 0.00 0.00 39 1013.0
20260502203104 63 19 3.0 3.0 0.00 0.00 0.00 34 1013.0
20260502202604 63 26 2.0 2.0 0.00 0.00 0.00 37 1013.0
20260502202103 66 59 4.0 7.0 0.00 0.00 0.00 33 1013.0
20260502201602 68 129 3.0 4.0 0.00 0.00 0.00 32 1013.0
20260502201102 67 291 2.0 3.0 0.00 0.00 0.00 30 1013.0